Location: Oregon Trail
(41.1872°N, 102.0741°W)
Time: 21:08:50
(UTC+00:00)

COSMOS 2487 - Pass Details

Date: 19 November 2019
Orbit: 443 x 448 km, 74.7° (Epoch: 14 December)

Event Time Altitude Azimuth Distance (km) Brightness Sun altitude
Exits shadow 12:52:15 - 256° (WSW) 1,629 4.7 -9.3°
Reaches altitude 10° 12:52:30 10° 259° (W) 1,563 4.6 -9.3°
Maximum altitude 12:54:41 16° 298° (WNW) 1,255 4.0 -8.9°
Drops below altitude 10° 12:56:52 10° 338° (NNW) 1,571 4.8 -8.5°
Sets 12:59:36 0° 1° (N) 2,448 6.0 -8.0°
